Regional Weather Roundup
Issued by NWS Raleigh/Durham, NC

Home | Current Version | Previous Version | Text Only | Print | Product List | Glossary On
Versions: 1 2 3 4 5 6 7 8 9 10 11 12 13 14 15 16 17 18 19 20 21 22 23 24 25 26 27 28 29 30 31 32 33 34 35 36 37 38 39 40 41 42 43 44 45 46 47 48 49 50
000
ASUS42 KRAH 310510
RWRRAH
NORTH CAROLINA WEATHER ROUNDUP
NATIONAL WEATHER SERVICE RALEIGH NC
100 AM EDT TUE MAY 31 2016

NOTE: "FAIR" INDICATES FEW OR NO CLOUDS BELOW 12,000 FEET WITH NO
SIGNIFICANT WEATHER AND/OR OBSTRUCTIONS TO VISIBILITY.

NCZ001-053-055-056-065-067-310600-
WESTERN NORTH CAROLINA

CITY           SKY/WX    TMP DP  RH WIND       PRES   REMARKS
ASHEVILLE      CLOUDY    66  63  90 CALM      30.05F
JEFFERSON      MOCLDY    64  59  85 CALM      30.08F
MORGANTON      CLEAR     65  65 100 CALM      30.03F FOG
HICKORY        CLEAR     67  65  93 CALM      29.98S
RUTHERFORDTON  PTCLDY    67  67  99 NW3       29.99F
MOUNT AIRY     NOT AVBL
BOONE          CLEAR     60  60 100 CALM      30.09F FOG
$$

NCZ021-022-025-041-071-084-088-310600-
CENTRAL NORTH CAROLINA

CITY           SKY/WX    TMP DP  RH WIND       PRES   REMARKS
CHARLOTTE      PTCLDY    70  65  84 CALM      29.96F
GREENSBORO     CLOUDY    72  68  87 CALM      29.98R
WINSTON-SALEM  PTCLDY    69  65  86 N5        29.99S
RALEIGH-DURHAM LGT RAIN  71  69  93 CALM      29.95F
FORT BRAGG     CLOUDY    72  70  94 N2        29.92S
FAYETTEVILLE   CLOUDY    72  70  93 N6        29.92S
BURLINGTON     PTCLDY    68  67  96 CALM      29.96F
LAURINBURG     MOCLDY    71  69  93 N5        29.93S
$$

NCZ011-015-027-028-043-044-047-080-103-310600-
NORTHEASTERN NORTH CAROLINA

CITY           SKY/WX    TMP DP  RH WIND       PRES   REMARKS
ROCKY MT-WILSO MOCLDY    69  69 100 NE3       29.94S
GREENVILLE     PTCLDY    70  70 100 CALM      29.95F
WASHINGTON     CLOUDY    69  69  99 CALM      29.93F FOG
ELIZABETH CITY PTCLDY    70  68  93 E3        29.93F
MANTEO         NOT AVBL
CAPE HATTERAS  PTCLDY    71  69  93 CALM      29.92F
$$

NCZ078-087-090-091-093-098-101-310600-
SOUTHEASTERN NORTH CAROLINA

CITY           SKY/WX    TMP DP  RH WIND       PRES   REMARKS
LUMBERTON      CLOUDY    72  69  90 CALM      29.91S
GOLDSBORO      NOT AVBL
KINSTON        CLOUDY    71  70  98 E3        29.94S
KENANSVILLE    CLOUDY    71  70  98 CALM      29.93S
NEW BERN       PTCLDY    71  69  93 CALM      29.94S
CHERRY POINT   PTCLDY    72  70  93 CALM      29.94S
BEAUFORT       CLOUDY    74  72  93 CALM      29.92F
JACKSONVILLE   CLOUDY    75  72  90 E7        29.90F
WILMINGTON     CLEAR     72  70  93 CALM      29.90F
$$




USA.gov is the U.S. government's official web portal to all federal, state and local government web resources and services.